Location: Gälforsberget
(66.6500°N, 22.4167°E)
Time: 06:03:07
(UTC+00:00)

Cosmos 1741 Rocket - Pass Details

Date: 11 April 2026
Orbit: 756 x 778 km, 74.0° (Epoch: 10 May)

Event Time Altitude Azimuth Distance (km) Brightness Sun altitude
Rises 22:27:00 0° 313° (NW) 3,254 8.0 -14.8°
Reaches altitude 10° 22:29:23 10° 316° (NW) 2,328 7.2 -14.8°
Maximum altitude 22:34:41 77° 42° (NE) 803 4.2 -14.8°
Drops below altitude 10° 22:40:00 10° 129° (SE) 2,331 6.2 -14.7°
Enters shadow 22:40:40 - 130° (SE) 2,590 6.4 -14.7°
